Погода в Ульяновской

Россия / Архангельская область     60°53′21″N   43°06′43″E
темп.,
°C
ветер,
м/с
пор.,
м/с
влажн.,
%
обл.,
%
осадки,
мм/ч
давл.,
гПа
погр.,
м
17 сентября, пт
пт1700:00+4сз3892100 0.3 1017342
03:00+3сз389697 0.5 1017383
06:00+1сз2898100 0.0 1018319
09:00+4ссз3888100 0.0 1018697
12:00+5ссз3689100 0.1 1018991
15:00+5ссз3793100 0.2 1019619
18:00+6с2691100 0.3 1020301
21:00+4с3892100 0.4 1022453
18 сентября, сб
сб1800:00+3с3884100 0.1 1024494
03:00+3ссз3782100 0.1 1024219
06:00+3ссз2781100 0.0 1025231
09:00+5с387094 0.0 1026571
12:00+7с4655100 0.0 10261618
15:00+7с3759100 0.0 10271631
18:00+5с3771100 0.1 1027538
21:00+1ссз27935 0.1 1028153
19 сентября, вс
вс1900:000ссз258882 0.0 102897
03:00+2ссз278297 0.0 1029269
06:000ссз299711 0.0 1029241
09:00+4ссв36675 0.0 1030735
12:00+5ссв4559100 0.0 10301340
15:00+5ссв3657100 0.0 10301421
18:00+4ссв2666100 0.0 1030355
21:00+4св3662100 0.0 1031569
20 сентября, пн
пн2000:00+4св3561100 0.0 1032284
03:00+3св2670100 0.0 1033288
06:00+4св3562100 0.0 1033275
09:00+5всв3559100 0.0 10341262
12:00+6всв355389 0.0 10331317
15:00+8всв345071 0.0 10321345
18:00+4всв25745 0.0 1032109
21:00+1в28885 0.0 1032181
21 сентября, вт
вт2100:00−1в25940 0.0 103299
03:00−1в25930 0.0 1032106
06:00−1в27940 0.0 1031137
09:00+5вюв36640 0.0 1030429
12:00+9вюв46474 0.0 1029944
15:00+10вюв45454 0.0 10281038
18:00+5в26744 0.0 1028106
21:00+2вюв29874 0.0 1028169